Regional Weather Roundup
Issued by NWS Little Rock, AR

Home | Current Version | Previous Version | Text Only | Print | Product List | Glossary On
Versions: 1 2 3 4 5 6 7 8 9 10 11 12 13 14 15 16 17 18 19 20 21 22 23 24 25 26 27 28 29 30 31 32 33 34 35 36 37 38 39 40 41 42 43 44 45 46 47 48 49 50
443
ASUS44 KLZK 281105
RWRLZK

WEATHER ROUNDUP FOR ARKANSAS
NATIONAL WEATHER SERVICE LITTLE ROCK AR
500 AM CST TUE FEB 28 2017

NOTE: "FAIR" INDICATES FEW OR NO CLOUDS BELOW 12,000 FEET WITH NO
SIGNIFICANT WEATHER AND/OR OBSTRUCTIONS TO VISIBILITY.

ARZ001-003-010-029-281200-
NORTHWEST ARKANSAS

CITY           SKY/WX    TMP DP  RH WIND       PRES   REMARKS
FAYETTEVILLE   CLOUDY    61  60  97 S21G26    29.86S
FORT SMITH     CLOUDY    59  55  87 NE6       29.87F
HARRISON       CLOUDY    60  58  92 S10G17    29.87F
BENTONVILLE    CLOUDY    63  57  82 S14       29.86R
ROGERS         CLOUDY    62  59  90 S20G29    29.85S
SILOAM SPGS    CLOUDY    63  57  82 S20G25    29.84S
HIGHFILL       CLOUDY    63  60  90 S16G23    29.84S
$$

ARZ004-005-016-281200-
NORTH CENTRAL ARKANSAS

CITY           SKY/WX    TMP DP  RH WIND       PRES   REMARKS
BATESVILLE     CLOUDY    57  55  94 S6        29.97S
FLIPPIN        CLOUDY    61  54  77 S8        29.87F
MTN HOME       CLOUDY    59  56  89 S12       29.88F
$$

ARZ040-041-281200-
WEST CENTRAL ARKANSAS

CITY           SKY/WX    TMP DP  RH WIND       PRES   REMARKS
MENA           CLOUDY    64  64 100 CALM      29.93S
MOUNT IDA      CLOUDY    65  62  90 VRB3      29.93R
$$

ARZ009-017-025-026-028-281200-
NORTHEAST ARKANSAS

CITY           SKY/WX    TMP DP  RH WIND       PRES   REMARKS
CORNING        CLOUDY    57  57 100 S10       29.97S FOG
JONESBORO      CLOUDY    59  57  93 S9        29.98S
NEWPORT        CLOUDY    59  58  96 S12       29.97
WALNUT RIDGE   CLOUDY    59  55  88 S15       29.96F
BLYTHEVILLE    CLOUDY    63  60  90 S15       30.00R
$$

ARZ022-023-033-042-044-281200-
CENTRAL ARKANSAS

CITY           SKY/WX    TMP DP  RH WIND       PRES   REMARKS
LITTLE ROCK    DRIZZLE   59  59 100 CALM      29.97S FOG
N LITTLE ROCK    N/A     60  59  97 S5        29.97F
JACKSONVILLE   CLOUDY    60  60 100 E3        29.96S FOG
SEARCY         CLOUDY    60  60 100 S8        29.99S
HOT SPRINGS    CLOUDY    61  61 100 SE6       29.96F FOG
RUSSELLVILLE   CLOUDY    61  58  90 SE6       29.90F
CLINTON        TSTM      55  55 100 CALM      29.94F
$$

ARZ036-281200-
EAST ARKANSAS

CITY           SKY/WX    TMP DP  RH WIND       PRES   REMARKS
WEST MEMPHIS   CLOUDY    63  62  97 S15G25    30.00S
$$

ARZ050-053-066-070-073-281200-
SOUTHWEST ARKANSAS

CITY           SKY/WX    TMP DP  RH WIND       PRES   REMARKS
ARKADELPHIA    CLOUDY    60  60 100 S3        29.97S
CAMDEN         CLOUDY    63  59  88 SE7       29.98S
TEXARKANA      CLOUDY    64  64 100 S13       29.94F FOG
EL DORADO      CLOUDY    63  62  97 S5        29.99S
DE QUEEN       CLOUDY    63  63 100 SE3       29.90S FOG
$$

ARZ056-057-069-281200-
SOUTHEAST ARKANSAS

CITY           SKY/WX    TMP DP  RH WIND       PRES   REMARKS
PINE BLUFF     CLOUDY    61  60  97 SE6       29.98F
STUTTGART      CLOUDY    63  54  72 S10       30.00S
MONTICELLO     CLOUDY    65  63  93 S8        30.00S

$$






USA.gov is the U.S. government's official web portal to all federal, state and local government web resources and services.